📊 Raw Sensor Data
Showing records 38301 to 38325 of 84,927 total
| ID | Distance (ft) | Battery V | Battery A | Int Temp (°F) | Int Humid (%) | Ext Temp (°F) | Solar V | RSSI | SNR | Time Stamp |
|---|---|---|---|---|---|---|---|---|---|---|
| 46639 | 15.3 | 3.93 | 0 | 69 | 44 | 70 | 5.10 | -69 | 8 | 07/18/2025 09:00 AM |
| 46638 | 15.3 | 3.93 | 0 | 68 | 44 | 71 | 5.10 | -69 | 7 | 07/18/2025 08:45 AM |
| 46637 | 15.3 | 3.93 | 0 | 66 | 44 | 67 | 5.10 | -69 | 8 | 07/18/2025 08:30 AM |
| 46636 | 15.3 | 3.93 | 0 | 65 | 44 | 69 | 5.10 | -69 | 8 | 07/18/2025 08:15 AM |
| 46635 | 15.3 | 3.93 | 0 | 65 | 43 | 67 | 5.10 | -69 | 8 | 07/18/2025 08:00 AM |
| 46634 | 15.2 | 3.92 | 0 | 63 | 43 | 68 | 5.10 | -69 | 7 | 07/18/2025 07:45 AM |
| 46633 | 15.2 | 4.09 | 11 | 62 | 42 | 67 | 4.50 | -69 | 8 | 07/18/2025 07:30 AM |
| 46632 | 15.2 | 4.02 | 0 | 60 | 42 | 67 | 4.50 | -69 | 8 | 07/18/2025 07:15 AM |
| 46631 | 15.1 | 3.98 | 7 | 59 | 43 | 64 | 4.50 | -68 | 8 | 07/18/2025 07:00 AM |
| 46630 | 15.1 | 3.97 | 0 | 57 | 43 | 62 | 4.50 | -69 | 8 | 07/18/2025 06:45 AM |
| 46629 | 15.0 | 3.82 | 0 | 56 | 43 | 60 | 4.50 | -69 | 8 | 07/18/2025 06:30 AM |
| 46628 | 15.0 | 3.80 | -5 | 55 | 43 | 57 | 4.50 | -70 | 7 | 07/18/2025 06:15 AM |
| 46627 | 14.9 | 3.77 | -10 | 54 | 43 | 56 | 4.10 | -70 | 8 | 07/18/2025 06:00 AM |
| 46626 | 14.9 | 3.93 | -5 | 54 | 43 | 56 | 0.80 | -70 | 8 | 07/18/2025 05:45 AM |
| 46625 | 14.9 | 3.81 | -5 | 54 | 43 | 56 | 0.00 | -69 | 8 | 07/18/2025 05:30 AM |
| 46624 | 15.0 | 3.79 | -5 | 54 | 43 | 55 | 0.00 | -69 | 8 | 07/18/2025 05:15 AM |
| 46623 | 14.9 | 3.93 | -5 | 54 | 43 | 55 | 0.00 | -68 | 8 | 07/18/2025 05:00 AM |
| 46622 | 14.9 | 3.81 | -5 | 55 | 43 | 56 | 0.00 | -68 | 8 | 07/18/2025 04:45 AM |
| 46621 | 14.9 | 3.80 | -5 | 55 | 43 | 56 | 0.00 | -69 | 8 | 07/18/2025 04:30 AM |
| 46620 | 15.0 | 3.93 | -5 | 55 | 44 | 56 | 0.10 | -70 | 9 | 07/18/2025 04:15 AM |
| 46619 | 14.9 | 3.83 | -5 | 55 | 44 | 56 | 0.00 | -69 | 7 | 07/18/2025 03:45 AM |
| 46618 | 15.0 | 3.94 | -5 | 55 | 44 | 56 | 0.00 | -69 | 8 | 07/18/2025 03:30 AM |
| 46617 | 14.9 | 3.84 | -5 | 55 | 44 | 56 | 0.00 | -68 | 9 | 07/18/2025 03:15 AM |
| 46616 | 14.9 | 3.85 | -5 | 55 | 44 | 57 | 0.00 | -70 | 8 | 07/18/2025 03:00 AM |
| 46615 | 14.9 | 3.94 | -5 | 56 | 44 | 57 | 0.10 | -69 | 8 | 07/18/2025 02:45 AM |